Voltar ao catálogo

ZK-1A R/B

AtivoPO
NORAD 66411·ROCKET BODY·🇨🇳 China

Lançado Nov 9, 2025 de Jiuquan Satellite Launch Center

Loading…

Próximas Passagens (próximas 24 horas)

TLE

AtualizadoSource: Space-Track

Época: Sep 14, 2026, 00:42 UTC

1 66411U 25256C   26257.02929604  .00010332  00000-0  38619-3 0  9991
2 66411  98.2985 351.3951 0204506  43.6731 318.0475 15.10165715 46492

Acompanhe ZK-1A R/B em tempo real com AllMySat

Download on the App Store